Flag for U.S.A. Weather past 2 weeks in New Haven, Connecticut, U.S.A.

Now
85 °F

Scattered clouds.


Feels Like: 87 °F
Forecast: 66 / 87 °F
Wind: 9 mph from Southwest

Location: Tweed-New Haven Airport

Current Time: Sep 2, 2015 at 3:57:50 PM

Latest Report: Sep 2, 2015 at 2:53 PM


Visibility: 10 mi

Pressure: 29.94 "Hg

Humidity: 53%

Dew point: 66 °F

Location of New HavenLocation

Historic Weather in New Haven — Graph

°F

New Haven temperature yesterday

Maximum temperature yesterday: 85 °F (at 11:53 AM)
Minimum temperature yesterday: 68 °F (at 5:53 AM)
Average temperature yesterday: 76 °F

Past Weeks' High & Low Weather Summary

 TemperatureHumidityPressure
High85 °F (Aug 18, 2:53 PM)97% (Aug 19, 4:53 AM)30.22 "Hg (Aug 19, 4:53 AM)
Low57 °F (Aug 29, 3:53 AM)39% (Aug 26, 5:53 PM)29.82 "Hg (Aug 25, 4:53 PM)
Average75 °F74%30.02 "Hg
* Reported Aug 18 2:53 PM — Sep 2 2:53 PM, New Haven, Weather by CustomWeather, © 2015

Note: Actual official high and low records may vary slightly from our data, if they occured in-between our weather recording intervals... More about our weather records

Advertising

New Haven weather history for previous 24 hours

 ConditionsComfort  
Time TempWeatherWind HumidityBarometerVisibility
2:53 PM
Wed, Sep 2
85 °FScattered clouds.9 mph53%29.94 "Hg10 mi
1:53 PM83 °FScattered clouds.9 mph63%29.95 "Hg10 mi
12:53 PM82 °FPassing clouds.10 mph63%29.97 "Hg9 mi
11:53 AM79 °FPassing clouds.12 mph72%30.00 "Hg8 mi
10:53 AM78 °FSunny.12 mph76%30.01 "Hg7 mi
9:53 AM76 °FSunny.5 mph80%30.02 "Hg7 mi
8:53 AM73 °FFog.5 mph88%30.03 "Hg6 mi
7:53 AM71 °FSunny.No wind90%30.03 "Hg7 mi
6:53 AM64 °FClear.No wind97%30.03 "Hg10 mi
5:53 AM64 °FFog.No wind97%30.02 "Hg3 mi
4:53 AM65 °FFog.No wind97%30.02 "Hg5 mi
3:53 AM66 °FFog.No wind93%30.03 "Hg5 mi
2:53 AM66 °FFog.No wind93%30.03 "Hg5 mi
1:53 AM66 °FClear.No wind90%30.05 "Hg10 mi
12:53 AM68 °FClear.No wind90%30.06 "Hg8 mi
11:53 PM
Tue, Sep 1
72 °FClear.3 mph87%30.06 "Hg10 mi
10:53 PM71 °FClear.3 mph87%30.05 "Hg10 mi
9:53 PM72 °FClear.5 mph78%30.06 "Hg10 mi
8:53 PM74 °FClear.5 mph76%30.05 "Hg10 mi
7:53 PM76 °FSunny.No wind77%30.03 "Hg10 mi
6:53 PM79 °FSunny.6 mph67%30.02 "Hg10 mi
4:53 PM83 °FSunny.6 mph50%30.01 "Hg10 mi
3:53 PM82 °FSunny.7 mph53%30.02 "Hg10 mi
Weather by CustomWeather, © 2015

See weather overviewHow to use our weather pages